Terug naar catalogus

STARLINK-5488

ActiefCommunicatieVLEO
NORAD 57250·PAYLOAD·🇺🇸 United States

Gelanceerd Jul 7, 2023 vanaf Vandenberg Space Force Base

Loading…

Volgende Passages (komende 24 uur)

TLE

VersSource: CelesTrak SupGP

Epoch: Sep 14, 2026, 19:59 UTC

1 57250C 23094AJ  26257.83312500  .00061088  00000+0  22124-2 0  2573
2 57250  43.0019  31.6413 0001495 272.7070 236.7207 15.27550427    16

Volg STARLINK-5488 in realtime met AllMySat

Download on the App Store